Miscellaneous Local Product
Issued by NWS Hastings, NE

Home | Current Version | Previous Version | Text Only | Print | Product List | Glossary On
Versions: 1 2 3 4 5 6 7 8 9 10 11 12 13 14 15 16 17 18 19 20 21 22 23 24 25 26 27 28 29 30 31 32 33 34 35 36 37 38 39 40 41 42 43 44 45 46 47 48 49 50
000
AXUS43 KGID 220302
MISGRI

GID CWA HOURLY WEATHER ROUNDUP
NATIONAL WEATHER SERVICE HASTINGS NE
900 PM CST SUN DEC 21 2014

NOTE: "FAIR" INDICATES FEW OR NO CLOUDS BELOW 12,000 FEET WITH NO
SIGNIFICANT WEATHER AND/OR OBSTRUCTIONS TO VISIBILITY.

...SOUTH CENTRAL NEBRASKA...

CITY           SKY/WX    TMP DP  RH WIND       PRES   REMARKS
GRAND ISLAND   CLOUDY    41  38  89 S18       29.58S
HASTINGS       CLOUDY    41  38  89 S13       29.57S
KEARNEY        CLOUDY    39  37  93 S15       29.54F WCI  31
ORD            NOT AVBL
YORK           CLOUDY    41  39  93 S15       29.60F
AURORA         CLOUDY    40  40 100 S10G17    29.59R WCI  34
LEXINGTON      CLOUDY    40  37  86 S10       29.53F WCI  34
HOLDREGE       CLOUDY    39  37  94 S8G17     29.54F WCI  33
HEBRON         CLOUDY    42  40  92 S12       29.62F FOG

...NEBRASKA PANHANDLE...

CITY           SKY/WX    TMP DP  RH WIND       PRES   REMARKS
CHADRON        CLOUDY    39  30  70 W13       29.50R WCI  31
ALLIANCE       MOCLDY    28  26  92 W8        29.50R WCI  20
SCOTTSBLUFF    CLOUDY    39  32  76 W13       29.55R WCI  31
SIDNEY         MOCLDY    38  31  76 NW12      29.53R WCI  30

...WESTERN AND NORTH CENTRAL NEBRASKA...

CITY           SKY/WX    TMP DP  RH WIND       PRES   REMARKS
VALENTINE      CLOUDY    36  31  82 SW9       29.42S WCI  29
AINSWORTH      CLOUDY    35  32  88 S14       29.44S WCI  26
ONEILL         CLOUDY    38  37  97 S15G23    29.49F FOG     WCI  30
BROKEN BOW     CLOUDY    38  35  89 SE7       29.49F WCI  33
IMPERIAL       MOCLDY    35  30  82 W3        29.51R
NORTH PLATTE   MOCLDY    35  32  88 S6        29.48F WCI  30
MCCOOK         CLOUDY    38  34  85 CALM      29.51F

...EASTERN NEBRASKA...

CITY           SKY/WX    TMP DP  RH WIND       PRES   REMARKS
NORFOLK        CLOUDY    41  38  89 S17G26    29.55F
SO SIOUX CITY  CLOUDY    41  39  93 SE9       29.62F
TEKAMAH        LGT RAIN  42  40  92 S15       29.65F FOG
COLUMBUS       CLOUDY    41  37  87 S15       29.61S
ALBION         CLOUDY    39  37  89 S15G21    29.55S WCI  31
OMAHA EPPLEY   DRIZZLE   42  41  96 S18       29.68F FOG
OFFUTT AFB     CLOUDY    42  41  96 SE15      29.67F FOG
MILLARD        CLOUDY    42  41  93 SE12G17   29.67F FOG
LINCOLN        CLOUDY    42  41  96 S14       29.65F
NEBRASKA CITY  DRIZZLE   42  42 100 S15       29.69F
BEATRICE       CLOUDY    42  41  97 S10       29.65F FOG
FALLS CITY     CLOUDY    43  41  93 S15       29.71F FOG

...NORTHERN KANSAS...

CITY           SKY/WX    TMP DP  RH WIND       PRES   REMARKS
GOODLAND       CLOUDY    42  34  73 W14       29.54S
HILL CITY      CLOUDY    42  37  82 S12G18    29.55F
NORTON         MOCLDY    37  34  87 S10       29.52F WCI  30
PHILLIPSBURG   CLOUDY    43  43 100 SE7       29.57F
SMITH CENTER   CLOUDY    39  39 100 SE12      29.59F WCI  32
BELOIT         CLOUDY    43  43 100 SE9       29.62S
HAYS           CLOUDY    41  34  75 S9        29.59F
RUSSELL        CLOUDY    42  41  96 S14       29.58F
CONCORDIA      CLOUDY    43  43 100 S9        29.64S
SALINA         CLOUDY    45  42  89 S13       29.66F FOG
TOPEKA         CLOUDY    46  42  86 S12       29.74S



USA.gov is the U.S. government's official web portal to all federal, state and local government web resources and services.